IZ2OSD Weather Reports


time (UTC)temp
C
wind
direction
speed
KPH
gust
KPH
rain 1hr
cm
rain 24hr
cm
rain mn
cm
humidity
%
barometer
mb
20260906063852 25 292 1.6 3.2 0.00 0.00 0.00 61 1021.7
20260906062851 25 337 0.0 1.6 0.00 0.00 0.00 60 1021.8
20260906061846 25 0.0 0.0 0.00 0.00 0.00 59 1021.8
20260906061000 25 0.0 0.0 0.00 0.00 0.00 60 1021.5
20260906055833 25 337 0.0 1.6 0.00 0.00 0.00 62 1021.1
20260906054829 24 315 1.6 3.2 0.00 0.00 0.00 62 1020.9
20260906053849 24 0.0 0.0 0.00 0.00 0.00 64 1020.8
20260906052822 23 315 1.6 4.8 0.00 0.00 0.00 66 1020.6
20260906051819 23 315 3.2 4.8 0.00 0.00 0.00 66 1020.7
20260906050818 23 315 3.2 4.8 0.00 0.00 0.00 67 1020.5
20260906045812 23 315 1.6 3.2 0.00 0.00 0.00 67 1020.4
20260906044808 23 0.0 1.6 0.00 0.00 0.00 67 1020.3
20260906042823 23 315 3.2 3.2 0.00 0.00 0.00 69 1020.2
20260906041819 23 315 0.0 3.2 0.00 0.00 0.00 68 1020.0
20260906040814 23 0 1.6 4.8 0.00 0.00 0.00 70 1019.9
20260906035811 23 315 4.8 9.7 0.00 0.00 0.00 71 1019.9
20260906034809 23 320 1.6 6.4 0.00 0.00 0.00 71 1019.9
20260906033759 24 337 3.2 6.4 0.00 0.00 0.00 71 1019.9
20260906032755 24 0 4.8 9.7 0.00 0.00 0.00 71 1019.9
20260906031752 24 315 4.8 9.7 0.00 0.00 0.00 71 1019.8
20260906030748 24 315 4.8 9.7 0.00 0.00 0.00 71 1019.4
20260906025745 24 335 4.8 9.7 0.00 0.00 0.00 72 1019.5
20260906024735 24 315 3.2 6.4 0.00 0.00 0.00 72 1019.6
20260906023731 25 0.0 3.2 0.00 0.00 0.00 72 1019.6
20260906022722 25 315 6.4 9.7 0.00 0.00 0.00 72 1019.3
20260906021736 25 292 4.8 9.7 0.00 0.00 0.00 72 1019.4
20260906020714 25 337 1.6 9.7 0.00 0.00 0.00 71 1019.2
20260906015730 25 315 4.8 9.7 0.00 0.00 0.00 69 1019.0
20260906014701 25 315 4.8 14.5 0.00 0.00 0.00 67 1019.2
20260906013657 25 337 3.2 6.4 0.00 0.00 0.00 66 1019.5
20260906012321 25 22 3.2 4.8 0.00 0.00 0.00 65 1019.3
20260906010136 25 45 4.8 9.7 0.00 0.00 0.00 62 1018.9
20260906005153 25 337 3.2 6.4 0.00 0.00 0.00 61 1019.1
20260906004131 25 0 6.4 9.7 0.00 0.00 0.00 59 1019.1
20260906003107 24 45 1.6 4.8 0.00 0.00 0.00 57 1019.0
20260906002102 24 0.0 0.0 0.00 0.00 0.00 55 1019.1
20260906001059 24 315 0.0 1.6 0.00 0.00 0.00 57 1019.1
20260906000056 25 315 1.6 3.2 0.00 0.00 0.00 56 1019.1
20260905234727 25 315 0.0 4.8 0.00 0.00 0.00 54 1018.9
20260905233723 25 90 0.0 1.6 0.00 0.00 0.00 53 1019.0
20260905232742 25 0.0 0.0 0.00 0.00 0.00 52 1019.1
20260905231711 25 337 1.6 3.2 0.00 0.00 0.00 51 1018.9
20260905230710 25 315 1.6 6.4 0.00 0.00 0.00 54 1019.0
20260905225702 25 90 4.8 9.7 0.00 0.00 0.00 53 1018.5
20260905224659 25 315 1.6 3.2 0.00 0.00 0.00 52 1018.5
20260905223838 26 315 3.2 4.8 0.00 0.00 0.00 51 1018.1
20260905221838 26 315 3.2 4.8 0.00 0.00 0.00 51 1018.2
20260905220835 26 315 0.0 3.2 0.00 0.00 0.00 49 1018.2
20260905215853 27 0.0 1.6 0.00 0.00 0.00 47 1018.1
20260905214823 27 315 3.2 4.8 0.00 0.00 0.00 47 1017.4
20260905213819 27 315 4.8 4.8 0.00 0.00 0.00 48 1017.7
20260905212815 27 315 3.2 6.4 0.00 0.00 0.00 49 1017.7
20260905211812 27 315 3.2 6.4 0.00 0.00 0.00 49 1017.7
20260905210809 27 315 4.8 6.4 0.00 0.00 0.00 50 1017.5
20260905205401 27 315 1.6 3.2 0.00 0.00 0.00 52 1017.5
20260905204334 27 315 4.8 4.8 0.00 0.00 0.00 54 1017.7
20260905203353 26 315 1.6 3.2 0.00 0.00 0.00 57 1017.4
20260905202322 26 292 1.6 3.2 0.00 0.00 0.00 59 1017.4
20260905201318 26 315 3.2 6.4 0.00 0.00 0.00 62 1017.3
20260905200313 26 315 1.6 3.2 0.00 0.00 0.00 63 1017.5
20260905195330 27 315 1.6 3.2 0.00 0.00 0.00 63 1017.3
20260905194306 27 315 0.0 1.6 0.00 0.00 0.00 63 1017.0
20260905193302 27 0.0 0.0 0.00 0.00 0.00 65 1016.9
20260905192319 27 315 0.0 1.6 0.00 0.00 0.00 64 1017.1
20260905191256 27 315 4.8 4.8 0.00 0.00 0.00 64 1017.0
20260905185819 28 0.0 0.0 0.00 0.00 0.00 59 1017.0
20260905184816 28 0.0 0.0 0.00 0.00 0.00 58 1016.6
20260905183812 28 0.0 0.0 0.00 0.00 0.00 57 1016.2
20260905182808 29 0.0 0.0 0.00 0.00 0.00 56 1016.2
20260905181331 29 0.0 0.0 0.00 0.00 0.00 56 1016.2
20260905180327 30 0.0 0.0 0.00 0.00 0.00 55 1016.2
20260905175324 30 0.0 0.0 0.00 0.00 0.00 54 1016.1
20260905174341 30 0.0 0.0 0.00 0.00 0.00 53 1015.9
20260905172328 30 0.0 0.0 0.00 0.00 0.00 53 1015.9
20260905171324 30 0.0 0.0 0.00 0.00 0.00 53 1015.8
20260905170321 31 0.0 1.6 0.00 0.00 0.00 52 1016.0
20260905164857 31 315 0.0 1.6 0.00 0.00 0.00 52 1015.8
20260905160124 32 0.0 0.0 0.00 0.00 0.00 47 1015.8
20260905155121 32 0.0 0.0 0.00 0.00 0.00 49 1015.8
20260905153657 32 315 1.6 4.8 0.00 0.00 0.00 49 1015.5
20260905151724 32 0.0 0.0 0.00 0.00 0.00 47 1015.7
20260905150744 32 315 3.2 6.4 0.00 0.00 0.00 47 1015.6
20260905145718 32 337 3.2 6.4 0.00 0.00 0.00 46 1015.8
20260905144734 32 315 1.6 4.8 0.00 0.00 0.00 46 1015.4
20260905143710 33 315 1.6 3.2 0.00 0.00 0.00 46 1015.6
20260905142701 33 0.0 0.0 0.00 0.00 0.00 45 1015.7
20260905141658 33 225 0.0 3.2 0.00 0.00 0.00 46 1016.1
20260905135907 33 337 1.6 3.2 0.00 0.00 0.00 46 1016.0
20260905134902 33 315 0.0 1.6 0.00 0.00 0.00 46 1015.9
20260905133859 33 315 0.0 3.2 0.00 0.00 0.00 47 1016.0
20260905132856 33 315 1.6 3.2 0.00 0.00 0.00 46 1016.0
20260905130903 33 90 0.0 1.6 0.00 0.00 0.00 45 1016.4
20260905125900 33 315 1.6 4.8 0.00 0.00 0.00 45 1016.4
20260905124857 33 292 1.6 4.8 0.00 0.00 0.00 46 1016.7
20260905123522 32 315 0.0 3.2 0.00 0.00 0.00 47 1016.7
20260905122512 32 337 1.6 6.4 0.00 0.00 0.00 47 1016.5
20260905121508 32 0.0 0.0 0.00 0.00 0.00 47 1016.4
20260905120523 32 315 1.6 4.8 0.00 0.00 0.00 46 1016.6
20260905115502 32 315 1.6 3.2 0.00 0.00 0.00 47 1016.9
20260905114457 32 315 1.6 3.2 0.00 0.00 0.00 47 1016.9
20260905113109 31 315 4.8 4.8 0.00 0.00 0.00 48 1016.9
20260905112105 32 0.0 0.0 0.00 0.00 0.00 46 1016.8
20260905111100 31 315 0.0 1.6 0.00 0.00 0.00 49 1016.8
20260905110059 31 292 1.6 3.2 0.00 0.00 0.00 49 1017.0
20260905104816 32 315 3.2 4.8 0.00 0.00 0.00 47 1016.9
20260905103813 31 315 1.6 3.2 0.00 0.00 0.00 48 1017.1
20260905102829 31 315 1.6 3.2 0.00 0.00 0.00 49 1016.8
20260905100728 31 315 1.6 4.8 0.00 0.00 0.00 52 1016.7
20260905095725 31 0.0 0.0 0.00 0.00 0.00 52 1017.0
20260905094721 31 157 1.6 3.2 0.00 0.00 0.00 53 1017.3
20260905093223 30 292 0.0 1.6 0.00 0.00 0.00 54 1017.0
20260905092241 30 0.0 0.0 0.00 0.00 0.00 55 1017.0
20260905091217 30 292 1.6 3.2 0.00 0.00 0.00 53 1017.3
20260905090212 29 292 0.0 1.6 0.00 0.00 0.00 55 1016.9
20260905085230 28 0.0 0.0 0.00 0.00 0.00 58 1017.1
20260905083225 27 0.0 0.0 0.00 0.00 0.00 62 1016.6
20260905082221 27 0.0 0.0 0.00 0.00 0.00 59 1016.8
20260905081218 27 0.0 1.6 0.00 0.00 0.00 58 1016.7
20260905080212 27 0.0 1.6 0.00 0.00 0.00 59 1016.6
20260905075209 27 0.0 0.0 0.00 0.00 0.00 61 1016.5
20260905073725 27 292 1.6 1.6 0.00 0.00 0.00 58 1016.6
20260905072722 27 0.0 1.6 0.00 0.00 0.00 59 1016.3
20260905071718 26 0.0 0.0 0.00 0.00 0.00 63 1016.4
20260905070714 25 0.0 0.0 0.00 0.00 0.00 64 1016.3
20260905065731 25 292 0.0 1.6 0.00 0.00 0.00 64 1016.5
20260905064708 26 292 0.0 1.6 0.00 0.00 0.00 62 1016.3